Flight Track Log - Related Links

Times and Time Zones

All times are in EDT time to prevent confusion due to time zone crossing. See the RPA3253 flight status page for this flight to view local times or setup timezone preferences in your user account.

Time Position Orientation Groundspeed Altitude Reporting Facility
EDT Latitude Longitude Course Direction KTS MPH feet Rate Location/Type
Wed 10:31:49 PM 35.1850 -80.9536 246° West 174 200 1,600  Level Atlanta Center
Wed 10:32:44 PM 35.1369 -80.9556 182° South 209 241 3,000 1,966 Climbing Atlanta Center
Wed 10:33:45 PM 35.0947 -81.0181 230° Southwest 291 335 5,400 2,578 Climbing Atlanta Center
Wed 10:34:00 PM 35.2018 -81.2445 199° South  Level FlightAware Approximate
Wed 10:34:52 PM 35.1097 -81.1214 280° West 299 344 8,500  Level Atlanta Center
Wed 10:35:00 PM 35.1025 -81.2785 192° South  Level FlightAware Approximate
Wed 10:36:00 PM 35.0557 -81.3800 251° West  Level FlightAware Approximate
Wed 10:36:08 PM 35.1275 -81.2503 280° West 312 359 11,300  Level Atlanta Center
Wed 10:37:00 PM 35.0151 -81.4960 246° West  Level FlightAware Approximate
Wed 10:37:08 PM 35.0903 -81.3558 247° West 319 367 13,800  Level Atlanta Center
Wed 10:38:08 PM 35.0486 -81.4661 245° Southwest 338 389 15,700 1,950 Climbing Atlanta Center
Wed 10:39:08 PM 35.0031 -81.5767 243° Southwest 357 411 17,700 1,900 Climbing Atlanta Center
Wed 10:40:08 PM 34.9656 -81.6944 249° West 369 425 19,500 1,600 Climbing Atlanta Center
Wed 10:41:08 PM 34.9322 -81.8042 250° West 378 435 20,900 1,550 Climbing Atlanta Center
Wed 10:42:08 PM 34.8736 -81.9172 238° Southwest 383 441 22,600 1,050 Climbing Atlanta Center
Wed 10:43:08 PM 34.8047 -82.0328 234° Southwest 391 450 23,000 750 Climbing Atlanta Center
Wed 10:44:08 PM 34.7417 -82.1403 235° Southwest 397 457 24,100 1,100 Climbing Atlanta Center
Wed 10:45:08 PM 34.6747 -82.2581 235° Southwest 410 472 25,200 1,200 Climbing Atlanta Center
Wed 10:46:08 PM 34.6094 -82.3731 235° Southwest 416 479 26,500 1,150 Climbing Atlanta Center
Wed 10:47:08 PM 34.5442 -82.4903 236° Southwest 421 484 27,500 900 Climbing Atlanta Center
Wed 10:48:08 PM 34.4725 -82.6050 233° Southwest 428 493 28,300 900 Climbing Atlanta Center
Wed 10:49:08 PM 34.4031 -82.7272 235° Southwest 439 505 29,300 900 Climbing Atlanta Center
Wed 10:50:08 PM 34.3372 -82.8439 236° Southwest 429 494 30,100 950 Climbing Atlanta Center
Wed 10:51:08 PM 34.2675 -82.9606 234° Southwest 434 499 31,200 800 Climbing Atlanta Center
Wed 10:52:08 PM 34.1994 -83.0794 235° Southwest 434 499 31,700 650 Climbing Atlanta Center
Wed 10:53:08 PM 34.1294 -83.1956 234° Southwest 434 499 32,500 800 Climbing Atlanta Center
Wed 10:54:08 PM 34.0614 -83.3142 235° Southwest 434 499 33,300 750 Climbing Atlanta Center
Wed 10:55:08 PM 33.9931 -83.4325 235° Southwest 434 499 34,000 350 Climbing Atlanta Center
Wed 10:56:08 PM 33.9308 -83.5356 234° Southwest 433 498 34,000  Level Atlanta Center
Wed 10:57:08 PM 33.8606 -83.6536 234° Southwest 433 498 34,000  Level Atlanta Center
Wed 10:58:08 PM 33.7939 -83.7689 235° Southwest 433 498 34,000  Level Atlanta Center
Wed 10:59:08 PM 33.7211 -83.8889 234° Southwest 433 498 34,000  Level Atlanta Center
Wed 11:00:08 PM 33.6522 -84.0064 235° Southwest 433 498 34,000  Level Atlanta Center
Wed 11:01:08 PM 33.5750 -84.1361 234° Southwest 433 498 34,000  Level Atlanta Center
Wed 11:02:08 PM 33.5039 -84.2506 233° Southwest 433 498 34,000  Level Atlanta Center
Wed 11:03:08 PM 33.4328 -84.3722 235° Southwest 438 504 34,000  Level Atlanta Center
Wed 11:04:08 PM 33.3633 -84.4864 234° Southwest 438 504 34,000  Level Atlanta Center
Wed 11:05:08 PM 33.2900 -84.6078 234° Southwest 443 510 34,000  Level Atlanta Center
Wed 11:06:08 PM 33.2183 -84.7267 234° Southwest 448 516 34,000  Level Atlanta Center
Wed 11:07:08 PM 33.1531 -84.8353 234° Southwest 448 516 34,000  Level Atlanta Center
Wed 11:08:08 PM 33.0792 -84.9536 233° Southwest 453 521 34,000  Level Atlanta Center
Wed 11:09:08 PM 33.0031 -85.0792 234° Southwest 453 521 34,000  Level Atlanta Center
Wed 11:10:08 PM 32.9247 -85.2019 233° Southwest 448 516 34,000  Level Atlanta Center
Wed 11:11:08 PM 32.8483 -85.3247 233° Southwest 453 521 34,000  Level Atlanta Center
Wed 11:12:08 PM 32.7719 -85.4444 233° Southwest 458 527 34,000  Level Atlanta Center
Wed 11:13:08 PM 32.6972 -85.5642 233° Southwest 458 527 34,000  Level Atlanta Center
Wed 11:14:08 PM 32.6228 -85.6864 234° Southwest 458 527 34,000  Level Atlanta Center
Wed 11:15:08 PM 32.5481 -85.8056 233° Southwest 458 527 34,000  Level Atlanta Center
Wed 11:16:08 PM 32.4733 -85.9197 232° Southwest 483 556 34,000  Level Atlanta Center
Wed 11:17:08 PM 32.4006 -86.0364 234° Southwest 472 543 34,000  Level Atlanta Center
Wed 11:18:08 PM 32.3253 -86.1575 234° Southwest 467 537 34,000  Level Atlanta Center
Wed 11:19:08 PM 32.2525 -86.2739 234° Southwest 467 537 34,000  Level Atlanta Center
Wed 11:20:08 PM 32.1706 -86.4067 234° Southwest 467 537 34,000  Level Atlanta Center
Wed 11:21:08 PM 32.0892 -86.5197 230° Southwest 457 526 34,000  Level Atlanta Center
Wed 11:22:08 PM 32.0053 -86.6300 228° Southwest 457 526 34,000  Level Atlanta Center
Wed 11:23:08 PM 31.9281 -86.7306 228° Southwest 463 533 34,000  Level Atlanta Center
Wed 11:24:08 PM 31.8442 -86.8456 229° Southwest 468 539 34,000  Level Atlanta Center
Wed 11:25:43 PM 31.7117 -87.0258 229° Southwest 455 524 34,000  Level Houston Center
Wed 11:26:44 PM 31.6294 -87.1386 229° Southwest 455 524 34,000  Level Houston Center
Wed 11:27:45 PM 31.5467 -87.2519 229° Southwest 456 525 34,000  Level Houston Center
Wed 11:28:46 PM 31.4636 -87.3650 229° Southwest 458 527 34,000  Level Houston Center
Wed 11:29:47 PM 31.3817 -87.4786 230° Southwest 458 527 34,000  Level Houston Center
Wed 11:30:48 PM 31.2981 -87.5922 229° Southwest 460 529 34,000  Level Houston Center
Wed 11:31:49 PM 31.2139 -87.7042 229° Southwest 462 532 34,000  Level Houston Center
Wed 11:32:50 PM 31.1317 -87.8164 229° Southwest 457 526 34,000  Level Houston Center
Wed 11:33:51 PM 31.0306 -87.9514 229° Southwest 461 531 34,000  Level Houston Center
Wed 11:34:51 PM 30.9456 -88.0642 229° Southwest 464 534 34,000  Level Houston Center
Wed 11:35:52 PM 30.8586 -88.1772 228° Southwest 469 540 34,000  Level Houston Center
Wed 11:36:53 PM 30.7764 -88.2897 230° Southwest 460 529 34,000  Level Houston Center
Wed 11:37:54 PM 30.7008 -88.4081 233° Southwest 458 527 34,000  Level Houston Center
Wed 11:38:55 PM 30.6514 -88.5233 244° Southwest 455 524 34,000 -148 Level Houston Center
Wed 11:39:56 PM 30.5931 -88.6531 242° Southwest 452 520 33,700 -1,488 Descending Houston Center
Wed 11:40:56 PM 30.5358 -88.7817 243° Southwest 449 517 31,000 -3,074 Descending Houston Center
Wed 11:41:57 PM 30.4650 -88.9422 243° Southwest 466 536 27,500 -3,000 Descending Houston Center
Wed 11:42:58 PM 30.4114 -89.0633 243° Southwest 465 535 24,900 -2,557 Descending Houston Center
Wed 11:43:59 PM 30.3636 -89.1900 246° West 435 501 22,300 -2,508 Descending Houston Center
Wed 11:45:00 PM 30.3200 -89.3100 247° West 409 471 19,800 -2,410 Descending Houston Center
Wed 11:46:01 PM 30.2767 -89.4278 247° West 399 459 17,400 -2,380 Descending Houston Center
Wed 11:47:01 PM 30.2347 -89.5411 247° West 385 443 15,000 -2,182 Descending Houston Center
Wed 11:48:02 PM 30.2078 -89.6519 254° West 361 415 13,000 -1,869 Descending Houston Center
Wed 11:49:03 PM 30.2064 -89.7553 269° West 325 374 11,200 -1,672 Descending Houston Center
Wed 11:50:04 PM 30.2036 -89.8489 268° West 289 333 9,600 -1,537 Descending Houston Center
Wed 11:51:04 PM 30.2025 -89.9383 269° West 280 322 8,100 -1,438 Descending Houston Center
Wed 11:52:05 PM 30.2006 -90.0181 268° West 252 290 6,700 -1,279 Descending Houston Center
Wed 11:53:06 PM 30.1997 -90.0931 269° West 240 276 5,500 -1,190 Descending Houston Center
Wed 11:54:06 PM 30.1986 -90.1619 269° West 227 261 4,300 -1,200 Descending Houston Center

Login

Don't have an account? Register now (free) for customized features, flight alerts, and more!